Regional Weather Roundup
Issued by NWS Cleveland, OH

Home | Current Version | Previous Version | Text Only | Print | Product List | Glossary Off
Versions: 1 2 3 4 5 6 7 8 9 10 11 12 13 14 15 16 17 18 19 20 21 22 23 24 25 26 27 28 29 30 31 32 33 34 35 36 37 38 39 40 41 42 43 44 45 46 47 48 49 50

000
ASUS41 KCLE 140602
RWRCLE
OHIO REGIONAL WEATHER ROUNDUP
NATIONAL WEATHER SERVICE CLEVELAND, OH
100 AM EST THU DEC 14 2017

NOTE: "FAIR" INDICATES FEW OR NO CLOUDS BELOW 12,000 FEET WITH NO
SIGNIFICANT WEATHER AND/OR OBSTRUCTIONS TO VISIBILITY.

OHZ001>008-015>018-024>027-034-035-043-044-140700-
   NORTHWEST OHIO

CITY           SKY/WX    TMP DP  RH WIND       PRES   REMARKS
DEFIANCE       CLOUDY    22  17  81 NW14      29.60R WCI   9
FINDLAY        LGT SNOW  25  21  85 NW15      29.52R FOG     WCI  13
TOLEDO EXPRESS LGT SNOW  22  20  92 N17       29.56R FOG     WCI   8
TOLEDO EXEC    LGT SNOW  23  19  85 N13G22    29.55R FOG     WCI  11
LIMA           LGT SNOW  28  23  81 NW30G43   29.54R WCI  12
$$

OHZ009>014-019>023-028>033-038-089-140700-
   NORTHEAST OHIO

CITY           SKY/WX    TMP DP  RH WIND       PRES   REMARKS
CLE-HOPKINS    LGT SNOW  24  22  91 NE10      29.44R FOG     WCI  14
CLE-LAKEFRONT  LGT SNOW  24  21  88 NE12      29.43R FOG     WCI  13
CUY CO. ARPT   NOT AVBL
LORAIN-ELYRIA  LGT SNOW  24  19  81 NE8       29.42R VSB 1   WCI  15
ASHTABULA      LGT SNOW  21  19  92 NE5       29.44R VSB 1   WCI  15
AKRON-CANTON   LGT SNOW  28  24  85 SW12      29.35S VSB 1   WCI  18
WOOSTER        LGT SNOW  31  28  89 W23G31    29.37R VSB 1   WCI  18
MANSFIELD      LGT SNOW  30  27  88 W18G30    29.40R FOG     WCI  18
YOUNGSTOWN     LGT SNOW  22  19  89 E6        29.37S VSB 1   WCI  14
$$

OHZ042-051>053-060>062-070>072-077>081-140700-
  SOUTHWEST OHIO

CITY           SKY/WX    TMP DP  RH WIND       PRES   REMARKS
CINC-COVINGTON CLOUDY    38  28  67 W26G35    29.62R
CINC-LUNKEN    CLOUDY    40  27  59 W24G33    29.64R
HAMILTON       CLOUDY    37  27  67 W21G31    29.63R
DAYTON         CLOUDY    31  26  82 NW30G38   29.58R WCI  16
WRIGHT-PAT AFB CLOUDY    33  25  70 W14G33    29.58R WCI  24
DAYTON GENERAL CLOUDY    34  27  75 NW18G35   29.59R WCI  23
WILMINGTON     LGT RAIN  34  30  85 W22G33    29.56R WCI  22
$$

OHZ036-037-039>041-045>050-054>059-063>069-073>076-082>088-140700-
  CENTRAL AND SOUTHEAST OHIO

CITY           SKY/WX    TMP DP  RH WIND       PRES   REMARKS
COLUMBUS       CLOUDY    34  29  82 W23G35    29.50R WCI  22
OSU AIRPORT    FLURRIES  33  28  81 W26G37    29.50R WCI  20
BOLTON FIELD   CLOUDY    33  26  76 W15G25    29.53R WCI  23
RICKENBACK AFB CLOUDY    34  26  74 W28G40    29.53R WCI  20
NEWARK         CLOUDY    34  29  82 W23G36    29.47R WCI  22
MARION         CLOUDY    32  24  72 W22G33    29.47R WCI  19
LANCASTER      CLOUDY    35  26  69 W10G24    29.51R WCI  27
ZANESVILLE     LGT RAIN  35  31  85 W15G25    29.45R WCI  25
NEW PHILLY     NOT AVBL
$$




USA.gov is the U.S. government's official web portal to all federal, state and local government web resources and services.